This is the latest recevied weather packets stored in our database for station/object KI6SYE. If no packets are shown the sender has not sent any weather packets the latest 10 day(s).
| Time | Temp. | Humidity | Pressure | Rain* | Wind** | Luminosity | Snow |
|---|---|---|---|---|---|---|---|
| 1777134795 | 15.56° C | 76% | 1012.9 hPa | 0 mm | - | 226 W/m² | - |
| 1777134491 | 15.56° C | 75% | 1013 hPa | 0 mm | - | 236 W/m² | - |
| 1777134188 | 15.56° C | 76% | 1012.9 hPa | 0 mm | - | 148 W/m² | - |
| 1777133884 | 15° C | 76% | 1012.9 hPa | 0 mm | - | 141 W/m² | - |
| 1777133581 | 15° C | 76% | 1013.1 hPa | 0 mm | - | 149 W/m² | - |
| 1777133280 | 15.56° C | 75% | 1013 hPa | 0 mm | - | 153 W/m² | - |
| 1777132979 | 15.56° C | 75% | 1013.1 hPa | 0 mm | - | 186 W/m² | - |
| 1777132675 | 15.56° C | 75% | 1013.3 hPa | 0 mm | - | 170 W/m² | - |
| 1777132372 | 15.56° C | 76% | 1013.4 hPa | 0 mm | - | 248 W/m² | - |
| 1777132070 | 15.56° C | 75% | 1013.2 hPa | 0 mm | - | 171 W/m² | - |
| 1777131764 | 15° C | 76% | 1013.2 hPa | 0 mm | - | 188 W/m² | - |
| 1777131462 | 15.56° C | 76% | 1013 hPa | 0 mm | - | 199 W/m² | - |
| 1777131161 | 15° C | 77% | 1013.1 hPa | 0 mm | - | 349 W/m² | - |
| 1777130857 | 15° C | 77% | 1013.1 hPa | 0 mm | - | 135 W/m² | - |
| 1777130553 | 15° C | 77% | 1013.2 hPa | 0 mm | - | 124 W/m² | - |
| 1777130249 | 15° C | 77% | 1013.2 hPa | 0 mm | - | 184 W/m² | - |
| 1777129946 | 15° C | 76% | 1013.2 hPa | 0 mm | - | 136 W/m² | - |
| 1777129640 | 15.56° C | 76% | 1013.2 hPa | 0 mm | - | 189 W/m² | - |
| 1777129340 | 15° C | 76% | 1013 hPa | 0 mm | - | 254 W/m² | - |
| 1777129035 | 15° C | 77% | 1012.8 hPa | 0 mm | - | 118 W/m² | - |
| 1777128731 | 15° C | 77% | 1012.9 hPa | 0 mm | - | 154 W/m² | - |
| 1777128429 | 15° C | 77% | 1013 hPa | 0 mm | - | 232 W/m² | - |
| 1777128126 | 15° C | 77% | 1012.9 hPa | 0 mm | - | 206 W/m² | - |
| 1777127824 | 15° C | 78% | 1012.8 hPa | 0 mm | - | 175 W/m² | - |
| 1777127521 | 15° C | 80% | 1012.8 hPa | 0 mm | - | 129 W/m² | - |
* Rain latest hour (hover to see other rain measurements)
** Current wind speed in m/s (hover to see current wind gust speed)